Gage, OK

2:41 AM CDT on September 22, 2017 (GMT -0500)
Gage

Weather History for KGAG - July, 2013

Change the Weather History Date:

Monday, July 29, 2013

  Actual Average Record
Temperature  
Mean Temperature 84 °F -  
Max Temperature 98 °F 92 °F 109 °F (1986)
Min Temperature 69 °F 66 °F 50 °F (2005)
Cooling Degree Days 18    
Growing Degree Days 34 (Base 50)    
Moisture  
Dew Point 67 °F    
Average Humidity 69    
Maximum Humidity 100    
Minimum Humidity 31    
Precipitation  
Precipitation 3.27 in - - ()
Sea Level Pressure  
Sea Level Pressure 29.85 in    
Wind  
Wind Speed 18 mph (South)    
Max Wind Speed 39 mph    
Max Gust Speed 59 mph    
Visibility 7 miles    
Events Fog , Rain , Thunderstorm    
Averages and records for this station are not official NWS values.
T = Trace of Precipitation, MM = Missing Value Source: NWS Daily Summary

Daily Weather History Graph

Daily Weather History Graph

Search for Another Location

Airport or City:

Trip Planner

Search our weather history database for the weather conditions in past years. The results will help you decide how hot, cold, wet, or windy it might be!

Date:

Astronomy

Jul. 29, 2013 Rise Set
Actual Time 6:43 AM CDT 8:46 PM CDT
Civil Twilight 6:15 AM CDT 9:15 PM CDT
Nautical Twilight 5:40 AM CDT 9:50 PM CDT
Astronomical Twilight 5:02 AM CDT 10:27 PM CDT
Moon 12:24 AM CDT (7/29) 2:11 PM CDT (7/29)
Length of Visible Light 15h 00m
Length of Day
14h 03m
Waning Gibbous, 50% of the Moon is Illuminated
Jul 29
Waning Gibbous
Jul 29
Last Quarter
Aug 6
New
Aug 14
First Quarter
Aug 20
Full

Hourly Weather History & Observations

Time (CDT) Temp. Heat Index Dew Point Humidity Pressure Visibility Wind Dir Wind Speed Gust Speed Precip Events Conditions
12:53 AM 75.0 °F - 63.0 °F 66% 29.86 in 10.0 mi SSE 18.4 mph 27.6 mph N/A   Clear
1:53 AM 75.0 °F - 63.0 °F 66% 29.84 in 10.0 mi SSE 18.4 mph 25.3 mph N/A   Clear
2:53 AM 73.9 °F - 64.0 °F 71% 29.83 in 10.0 mi SSE 18.4 mph 26.5 mph N/A   Clear
3:53 AM 73.0 °F - 64.9 °F 76% 29.84 in 10.0 mi SSE 15.0 mph 20.7 mph N/A   Mostly Cloudy
4:53 AM 73.0 °F - 64.9 °F 76% 29.85 in 10.0 mi SSE 9.2 mph - N/A   Overcast
5:53 AM 72.0 °F - 64.9 °F 78% 29.85 in 10.0 mi SSE 9.2 mph - N/A   Scattered Clouds
6:53 AM 70.0 °F - 66.0 °F 87% 29.84 in 10.0 mi SSE 6.9 mph - N/A   Partly Cloudy
7:53 AM 73.0 °F - 66.9 °F 81% 29.85 in 10.0 mi South 9.2 mph 17.3 mph N/A   Partly Cloudy
8:53 AM 79.0 °F - 68.0 °F 69% 29.85 in 10.0 mi South 20.7 mph 27.6 mph N/A   Clear
9:53 AM 80.1 °F 82.7 °F 68.0 °F 67% 29.85 in 10.0 mi South 20.7 mph 29.9 mph N/A   Mostly Cloudy
10:53 AM 84.0 °F 87.0 °F 68.0 °F 58% 29.85 in 10.0 mi South 18.4 mph - N/A   Scattered Clouds
11:53 AM 88.0 °F 91.4 °F 68.0 °F 51% 29.83 in 10.0 mi South 23.0 mph 28.8 mph N/A   Partly Cloudy
12:53 PM 91.9 °F 95.9 °F 68.0 °F 45% 29.82 in 10.0 mi SSW 21.9 mph 28.8 mph N/A   Clear
1:53 PM 93.0 °F 96.4 °F 66.9 °F 42% 29.80 in 10.0 mi South 21.9 mph 28.8 mph N/A   Partly Cloudy
2:53 PM 96.1 °F 99.3 °F 66.0 °F 37% 29.79 in 10.0 mi SSW 19.6 mph 26.5 mph N/A   Clear
3:53 PM 96.1 °F 99.3 °F 66.0 °F 37% 29.77 in 10.0 mi South 20.7 mph 33.4 mph N/A   Partly Cloudy
4:53 PM 96.1 °F 98.8 °F 64.9 °F 36% 29.73 in 10.0 mi South 20.7 mph 32.2 mph N/A   Partly Cloudy
5:53 PM 98.1 °F 99.6 °F 63.0 °F 31% 29.72 in 10.0 mi South 26.5 mph 31.1 mph N/A   Clear
6:53 PM 97.0 °F 98.3 °F 63.0 °F 32% 29.70 in 10.0 mi SSW 23.0 mph 33.4 mph N/A   Clear
7:53 PM 93.0 °F 96.4 °F 66.9 °F 42% 29.71 in 10.0 mi South 20.7 mph 31.1 mph N/A   Mostly Cloudy
8:10 PM 91.4 °F 94.0 °F 66.2 °F 43% 29.81 in 10.0 mi South 23.0 mph 31.1 mph N/A Thunderstorm Mostly Cloudy
8:53 PM 84.0 °F 87.0 °F 68.0 °F 58% 29.78 in 10.0 mi NE 15.0 mph 23.0 mph N/A Thunderstorm Thunderstorm
9:07 PM 73.4 °F - 71.6 °F 94% 29.87 in 1.8 mi North 39.1 mph 54.1 mph 0.09 in Rain , Thunderstorm Light Thunderstorms and Rain
9:19 PM 78.8 °F - 69.8 °F 74% 29.87 in 4.0 mi North - - 0.17 in Thunderstorm Unknown
9:40 PM 69.8 °F - 68.0 °F 94% 29.92 in 0.2 mi NE 17.3 mph 58.7 mph 1.18 in Fog , Rain , Thunderstorm Heavy Thunderstorms and Rain
9:53 PM 71.1 °F - 68.0 °F 90% 29.82 in 1.2 mi SE 8.1 mph 34.5 mph 1.52 in Rain , Thunderstorm Heavy Thunderstorms and Rain
9:58 PM 73.4 °F - 69.8 °F 88% 29.92 in 3.0 mi Variable 4.6 mph 31.1 mph 0.00 in Rain , Thunderstorm Light Thunderstorms and Rain
10:36 PM 71.6 °F - 69.8 °F 94% 29.95 in 1.5 mi WNW 39.1 mph 49.5 mph 0.18 in Rain , Thunderstorm Heavy Thunderstorms and Rain
10:39 PM 71.6 °F - 69.8 °F 94% 29.95 in 0.8 mi NW 32.2 mph 49.5 mph 0.34 in Rain , Thunderstorm Heavy Thunderstorms and Rain
10:51 PM 69.8 °F - 69.8 °F 100% 30.00 in 0.8 mi NNE 11.5 mph 39.1 mph 0.90 in Rain , Thunderstorm Heavy Thunderstorms and Rain
10:52 PM 69.1 °F - 69.1 °F 100% 29.91 in 0.8 mi North 18.4 mph 28.8 mph 0.98 in Rain , Thunderstorm Heavy Thunderstorms and Rain
11:09 PM 71.6 °F - 68.0 °F 88% 29.98 in 1.2 mi SW 20.7 mph - 0.53 in Rain , Thunderstorm Heavy Thunderstorms and Rain
11:25 PM 73.4 °F - 68.0 °F 83% 29.94 in 2.0 mi South 18.4 mph 54.1 mph 0.77 in Rain , Thunderstorm Light Thunderstorms and Rain
11:33 PM 73.4 °F - 69.8 °F 88% 29.95 in 10.0 mi South 18.4 mph 26.5 mph 0.77 in Rain , Thunderstorm Light Thunderstorms and Rain
11:53 PM 72.0 °F - 69.1 °F 91% 29.86 in 10.0 mi South 13.8 mph - 0.77 in Thunderstorm Thunderstorm